パンスターズ彗星

P/2017 D4 ( PanSTARRS )

English version
Home page
Updated on October 8, 2017

---------------------------------------------------------------------

・ プロフィール

発見日 2017年2月25日
発見光度 20.6等
発見者 Pan-STARRS 1 telescope (Haleakala)

・ 写真集

・ 軌道要素

Epoch 2016 Sept. 9.0 TT = JDT 2457640.5
T 2016 Sept. 6.53682 TT                                 MPCW
q   2.7543581            (2000.0)            P               Q
n   0.04879376     Peri.  209.75935     -0.42834395     -0.88569136
a   7.4169702      Node   266.11425     +0.86045191     -0.33926969
e   0.6286411      Incl.   10.34064     +0.27594198     -0.31693358
P  20.20
From 60 observations 2017 Jan. 20-May 23, mean residual 0".5.

・ 光度変化

        m1 = 13.0 + 5 logΔ + 10.0 log r

---------------------------------------------------------------------

軌道要素はM.P.E.C. 2017-L52に掲載されたものです。
光度グラフはComet for Windowsで作成したものです。

---------------------------------------------------------------------

Copyright(C) Seiichi Yoshida (comet@aerith.net). All rights reserved.